Flag for Russia Weather past 2 weeks in Saint-Petersburg, Russia

Now
27 °F

Snow. Mostly cloudy.


Feels Like: 23 °F
Forecast: 16 / 26 °F
Wind: 3 mph from West

Location: St. Petersburg

Current Time: Jan 26, 2015 at 1:39:00 AM

Latest Report: Jan 26, 2015 at 1:00 AM


Visibility: 1 mi

Pressure: 30.15 "Hg

Humidity: 100%

Dew point: 27 °F

Location of Saint-PetersburgLocation

Historic Weather in Saint-Petersburg — Graph

°F

Saint-Petersburg temperature yesterday

Maximum temperature yesterday: 27 °F (at 12:30 AM)
Minimum temperature yesterday: 25 °F (at 12:00 AM)
Average temperature yesterday: 26 °F

Past Weeks' High & Low Weather Summary

 TemperatureHumidityPressure
High37 °F (Jan 14, 2:30 PM)100% (Jan 11, 6:30 AM)30.54 "Hg (Jan 11, 6:30 AM)
Low0 °F (Jan 21, 7:30 AM)67% (Jan 20, 4:00 PM)28.65 "Hg (Jan 11, 8:30 AM)
Average26 °F89%29.80 "Hg
* Reported Jan 11 12:30 AM — Jan 26 12:30 AM, Saint-Petersburg, Weather by CustomWeather, © 2014

Note: Actual official high and low records may vary slightly from our data, if they occured in-between our weather recording intervals... More about our weather records

Advertising

Saint-Petersburg weather history for previous 24 hours

 ConditionsComfort  
Time TempWeatherWind HumidityBarometerVisibility
12:30 AM
Jan 26
27 °FSnow. Mostly cloudy.1 mph100%30.15 "Hg1 mi
11:30 PM
Jan 25
27 °FSnow. Mostly cloudy.1 mph93%30.15 "Hg1 mi
11:00 PM27 °FLight snow. Overcast.3 mph93%30.15 "Hg2 mi
10:30 PM27 °FLight snow. Mostly cloudy.3 mph93%30.15 "Hg2 mi
10:00 PM27 °FLight snow. Mostly cloudy.1 mph93%30.15 "Hg2 mi
9:30 PM27 °FLight snow. Mostly cloudy.No wind93%30.15 "Hg2 mi
9:00 PM27 °FLight snow. Mostly cloudy.No wind93%30.15 "Hg4 mi
8:30 PM27 °FLight snow. Mostly cloudy.No wind93%30.15 "Hg3 mi
8:00 PM27 °FLight snow. Mostly cloudy.No wind93%30.15 "Hg3 mi
7:30 PM27 °FLight snow. Mostly cloudy.1 mph93%30.15 "Hg3 mi
7:00 PM27 °FLight snow. Mostly cloudy.1 mph93%30.15 "Hg2 mi
6:30 PM27 °FLight snow. Mostly cloudy.1 mph93%30.15 "Hg4 mi
6:00 PM27 °FLight snow. Mostly cloudy.No wind93%30.15 "Hg5 mi
5:30 PM27 °FLight snow. Mostly cloudy.No wind93%30.15 "Hg3 mi
5:00 PM27 °FLight snow. Cloudy.No wind93%30.15 "Hg3 mi
4:30 PM27 °FLight snow. Cloudy.1 mph93%30.15 "Hg2 mi
4:00 PM27 °FLight snow. Cloudy.1 mph93%30.15 "Hg4 mi
3:30 PM27 °FLight snow. Cloudy.3 mph93%30.12 "Hg4 mi
3:00 PM27 °FLight snow. Cloudy.3 mph93%30.15 "Hg6 mi
2:30 PM27 °FLight snow. Cloudy.3 mph93%30.15 "Hg3 mi
2:00 PM27 °FLight snow. Cloudy.6 mph93%30.15 "Hg1 mi
1:30 PM27 °FSnow. Cloudy.6 mph93%30.15 "Hg1 mi
1:00 PM27 °FSnow. Cloudy.6 mph93%30.15 "Hg1 mi
12:30 PM27 °FSnow. Cloudy.6 mph93%30.18 "Hg1 mi
12:00 PM27 °FSnow. Cloudy.6 mph93%30.18 "Hg1 mi
11:30 AM25 °FSnow. Cloudy.3 mph93%30.18 "Hg1 mi
11:00 AM25 °FSnow. Cloudy.3 mph93%30.18 "Hg1 mi
10:30 AM25 °FLow clouds.8 mph93%30.18 "HgN/A
10:00 AM25 °FLow clouds.8 mph86%30.18 "HgN/A
9:30 AM25 °FOvercast.8 mph86%30.18 "HgN/A
9:00 AM27 °FOvercast.8 mph80%30.18 "HgN/A
8:30 AM27 °FOvercast.6 mph80%30.21 "HgN/A
8:00 AM27 °FOvercast.6 mph80%30.21 "HgN/A
7:30 AM27 °FOvercast.6 mph80%30.21 "HgN/A
7:00 AM27 °FOvercast.6 mph80%30.21 "HgN/A
6:30 AM27 °FOvercast.8 mph80%30.21 "HgN/A
6:00 AM27 °FOvercast.6 mph80%30.21 "HgN/A
5:30 AM25 °FOvercast.3 mph86%30.21 "HgN/A
5:00 AM25 °FOvercast.6 mph86%30.24 "HgN/A
4:30 AM25 °FOvercast.6 mph86%30.24 "HgN/A
4:00 AM27 °FOvercast.6 mph86%30.24 "HgN/A
3:30 AM27 °FOvercast.6 mph80%30.24 "HgN/A
3:00 AM27 °FPassing clouds.8 mph80%30.24 "HgN/A
2:30 AM27 °FPassing clouds.6 mph80%30.24 "HgN/A
2:00 AM27 °FPassing clouds.6 mph86%30.24 "HgN/A
1:30 AM25 °FPassing clouds.6 mph93%30.24 "HgN/A
1:00 AM25 °FPartly cloudy.6 mph93%30.24 "HgN/A
Weather by CustomWeather, © 2014

See weather overviewHow to use our weather pages